Location: 01445 Radebeul, Deutschland
(51.1161°N, 13.6224°E)
Time: 02:10:57
(UTC+01:00)

ISS - Visible Passes

Search period start: 22 February 2018 00:00
Search period end: 04 March 2018 00:00
Orbit: 403 x 407 km, 51.6° (Epoch: 22 February)

Date Brightness Start Highest point End Pass type
(mag) Time Alt. Az. Time Alt. Az. Time Alt. Az.
28 Feb -1.8 06:16:38 10° SSW 06:19:28 27° SSE 06:22:19 10° E visible
01 Mar -1.3 05:25:03 10° S 05:27:22 18° SE 05:29:42 10° E visible
02 Mar -1.0 04:34:15 10° SSE 04:35:20 11° SE 04:36:30 10° ESE visible
02 Mar -2.9 06:08:02 10° SW 06:11:11 46° SSE 06:14:21 10° E visible
03 Mar -2.3 05:16:56 16° SSW 05:18:59 31° SSE 05:21:57 10° E visible
